SCP
0 0 0 0 0 0 0 0 0 0 0 0 0 0 0 0 0 0 0 0 0 0 0 0 0 0 0 0 0 0 0 0 0 0 0 0 0 0 0 0 0 0 0 0 0 0 0 0 1 0 0 0 0 0
0 0 0 0 0 0 0 0 0 0 0 0 0 0 0 0 0 0 0 0 -0 0 0 0 0 0 0 0 0 0 0 0 0 0 0 0 0 0 0 0 0 0 0 0 0 0 0 0 0 0 0 0 0 0
0 0 0 0 0 0 0 0 0 0 0 0 0 0 0 0 0 0 -0 -0 0 0 0 0 0 0 0 -0 0 0 0 0 0 0 0 0 0 0 0 0 0 0 0 0 0 0 0 0 0 0 0 0 0 0
0 0 0 0 0 0 0 0 0 0 0 0 0 0 0 0 0 0 -0 -0 -0 0 0 0 0 0 0 0 0 0 0 0 0 0 0 0 0 0 0 0 0 0 0 0 0 0 0 0 0 0 0 0 0 0
0 0 0 0 0 0 0 0 0 0 0 0 0 0 0 0 0 -0 -0 -0 -0 0 0 0 -0 0 -0 -0 0 0 0 0 0 0 0 0 0 0 0 0 0 0 0 0 0 0 0 0 0 0 0 0 0 0
-0 0 0 0 0 0 0 0 0 0 0 0 0 0 0 0 0 0 0 -0 -0 -0 0 0 0 0 0 0 0 0 0 0 0 0 0 0 0 0 0 0 0 0 0 0 0 0 0 0 0 0 0 0 0 0
-0 -0 0 0 0 0 0 0 0 0 0 0 0 0 0 0 0 -0 -0 -0 -0 0 0 0 0 0 0 0 0 0 0 0 0 0 0 0 0 0 0 0 0 0 0 0 0 0 0 0 0 0 0 0 0 0
-0 -0 0 0 0 0 0 0 0 0 0 0 0 0 0 0 -0 0 -0 -0 0 0 0 0 0 0 0 0 0 0 0 0 0 0 0 0 0 0 0 0 0 0 0 0 0 0 0 0 0 0 0 0 0 0
-0 0 0 0 0 0 0 0 0 0 0 0 0 0 0 0 0 0 0 0 0 0 0 0 0 0 0 0 0 0 0 0 0 0 0 0 0 0 0 0 0 0 0 0 0 0 0 0 0 0 0 0 0 0
-0 0 0 0 0 0 0 0 0 0 0 0 0 0 0 0 0 0 0 0 0 0 0 0 0 0 0 0 0 0 0 0 0 0 0 0 0 0 0 0 0 0 0 0 0 0 0 0 0 0 0 0 0 0
0 -0 0 -0 0 0 0 0 0 0 0 0 0 0 0 0 0 0 0 0 0 0 0 0 0 0 0 0 0 0 0 0 0 0 0 0 0 0 0 0 0 0 0 0 0 0 0 0 0 0 0 0 0 0
0 -0 0 0 0 0 0 0 0 0 0 0 0 0 0 0 0 0 0 0 0 0 0 0 0 0 0 0 0 0 0 0 0 0 0 0 0 0 0 0 0 0 0 0 0 0 0 0 0 0 0 0 0 0
0 -0 0 0 0 0 0 0 0 0 0 0 0 0 0 0 0 0 0 0 0 -0 0 0 -0 -0 0 0 0 0 0 -0 0 0 0 0 0 0 0 0 0 0 0 0 0 0 0 0 0 0 0 0 0 0
0 -0 0 0 0 0 0 0 0 0 0 0 0 0 0 0 0 0 0 0 0 0 0 0 -0 -0 -0 -0 -0 -0 -0 -0 -0 -0 -0 0 0 0 0 0 0 0 0 0 0 0 0 0 0 0 0 0 0 0
0 0 0 0 0 0 0 0 0 0 0 0 0 0 0 0 0 0 0 0 0 0 0 0 0 0 -0 -0 -0 -0 -0 -0 -0 -0 -0 0 -0 -0 0 0 0 0 0 0 0 0 0 0 0 0 0 0 0 0
0 0 0 0 0 0 0 0 0 0 0 0 0 0 0 0 0 0 0 0 0 0 0 0 0 -0 -0 -0 -0 -0 -0 -0 -0 -0 -0 -0 -0 -0 -0 -0 0 0 0 0 0 0 0 0 0 0 0 0 0 0
0 0 0 0 0 0 0 0 0 0 0 0 0 0 0 0 0 0 0 0 0 0 -0 -0 -0 -0 -0 0 0 -0 -0 -0 0 -0 -0 -0 -0 -0 -0 -0 0 0 0 0 -0 -0 -0 0 0 0 0 0 0 0
0 0 0 0 0 0 0 0 0 0 0 0 0 0 0 0 0 0 0 0 0 -0 -0 -0 -0 0 0 0 -0 -0 -0 -0 0 -0 -0 -0 -0 -0 0 -0 0 0 -0 -0 0 0 0 -0 -0 -0 0 0 0 0
0 0 0 0 0 0 0 0 0 0 0 0 0 0 0 -0 -0 -0 -0 -0 -0 -0 -0 -0 -0 0 0 -0 -0 0 0 0 -0 -0 -0 -0 -0 0 -0 -0 -0 0 0 0 0 0 -0 -0 0 0 0 0 0 0
0 0 0 0 0 0 0 0 0 0 0 0 0 0 -0 -0 0 -0 -0 -0 -0 -0 0 0 0 0 0 0 0 -0 -0 -0 -0 0 -0 0 0 0 -0 -0 0 0 0 0 -0 -0 -0 -0 -0 -0 -0 0 0 0
0 0 0 0 0 0 0 0 0 0 0 0 0 -0 0 -0 -0 -0 -0 0 -0 -0 0 0 0 -0 -0 0 -0 -0 -0 0 -0 -0 0 0 0 -0 -0 -0 0 0 0 0 0 0 -0 -0 -0 -0 -0 0 0 0
0 0 0 0 0 0 0 0 0 0 0 -0 -0 0 0 0 -0 -0 0 -0 -0 0 0 0 0 0 0 0 0 0 0 -0 -0 -0 -0 0 0 0 0 0 0 -0 -0 0 0 -0 0 0 -0 0 -0 0 0 0
0 0 0 0 0 0 0 0 0 0 0 0 0 0 -0 0 0 0 0 0 0 0 0 0 0 0 0 0 -0 -0 -0 -0 -0 -0 0 0 0 0 -0 -0 -0 0 0 -0 -0 -0 -0 -0 -0 -0 -0 -0 -0 -0
0 0 0 0 0 0 0 0 0 0 0 0 0 0 0 0 0 0 0 0 0 0 0 0 0 0 0 0 0 0 0 0 0 0 0 0 0 0 0 0 0 0 0 0 0 -0 -0 -0 -0 -0 -0 -0 -0 -0
0 0 0 0 0 0 0 0 0 0 0 0 0 0 0 0 0 0 0 0 0 0 0 0 0 0 0 0 0 0 0 0 0 0 0 0 0 0 0 0 0 0 0 -0 -0 -0 -0 -0 -0 -0 -0 0 -0 0
0 0 0 0 0 0 0 0 0 0 0 0 0 0 0 0 0 0 0 0 0 0 0 0 0 0 0 0 0 0 0 0 0 0 0 0 -0 -0 -0 0 0 0 0 -0 0 0 0 -0 -0 -0 0 0 0 0
0 0 0 0 0 0 0 0 0 0 0 0 0 0 0 0 0 0 0 0 0 0 0 0 0 0 0 0 0 0 0 0 0 0 0 0 0 0 0 0 0 -0 -0 -0 -0 0 0 0 0 0 0 0 0 0
0 0 0 0 0 0 0 0 0 0 0 0 0 0 0 0 0 0 0 0 0 0 0 0 0 0 0 0 0 -0 0 0 -0 -0 -0 0 0 0 0 0 0 -0 -0 -0 -0 -0 0 -0 -0 -0 -0 -0 0 0
0 0 0 0 0 0 0 0 0 0 0 0 0 0 0 0 0 0 0 0 0 0 0 0 0 0 -0 -0 -0 -0 -0 -0 -0 -0 -0 0 -0 -0 -0 -0 -0 -0 -0 0 -0 0 -0 -0 -0 -0 -0 0 0 0
0 0 0 0 0 0 0 0 0 0 0 0 0 0 0 0 0 0 0 0 0 0 0 0 0 -0 -0 -0 -0 -0 -0 -0 -0 0 0 -0 -0 -0 -0 -0 -0 -0 0 -0 -0 -0 -0 -0 -0 0 0 0 0 0
0 0 0 0 0 0 0 0 0 0 0 0 0 0 0 0 0 0 0 0 -0 -0 -0 -0 -0 -0 0 0 -0 -0 -0 -0 -0 -0 -0 -0 -0 -0 -0 -0 -0 0 -0 -0 -0 -0 -0 -0 0 0 0 0 0 0
0 0 0 0 0 0 0 0 0 0 0 0 0 0 0 0 0 0 -0 0 0 0 0 0 0 -0 -0 -0 -0 -0 -0 0 0 -0 -0 -0 -0 0 0 0 0 -0 -0 -0 -0 -0 0 0 0 0 0 0 0 0
0 0 0 0 0 0 0 0 0 0 0 0 0 0 0 0 -0 -0 -0 -0 -0 0 0 -0 -0 -0 -0 -0 0 -0 -0 -0 -0 -0 0 0 0 0 0 0 0 -0 -0 -0 0 0 0 0 0 0 0 0 0 0
Wind_Speed_500mb
21 25 25 23 25 28 28 23 20 21 21 21 22 22 19 15 12 6 10 10 8 9 26 28 22 20 12 5 4 10 8 6 8 5 2 3 3 3 4 2 6 11 12 7 5 4 11 14 3 5 4 7 14 32
24 16 17 22 28 31 24 21 19 19 19 22 21 20 17 16 16 11 5 15 20 19 22 32 42 43 33 28 5 7 4 5 3 4 0 1 3 5 3 5 3 2 7 8 12 9 5 10 5 11 9 4 10 29
24 24 24 24 30 25 23 19 16 19 19 19 19 18 16 17 18 17 12 9 14 15 26 14 4 8 17 37 37 12 4 3 1 6 4 2 2 1 1 4 1 3 5 6 4 6 7 13 14 14 7 11 18 24
25 22 20 23 26 23 22 18 17 18 20 19 19 17 17 16 16 13 12 8 10 8 6 7 3 1 4 14 28 43 18 3 5 8 3 2 2 1 2 5 3 6 6 8 4 9 11 14 11 7 7 10 18 27
27 25 22 23 25 25 23 20 19 17 19 18 19 18 18 15 11 1 7 8 13 11 8 23 7 9 10 5 15 23 45 35 8 9 4 2 6 2 4 3 6 7 9 8 10 16 7 5 10 17 12 16 23 26
26 25 26 26 26 25 23 20 20 19 17 17 17 17 16 12 4 4 3 2 7 15 9 8 12 8 17 4 10 17 32 35 13 4 4 4 5 4 3 3 10 10 9 9 2 8 12 7 6 7 14 24 30 28
26 25 23 26 23 21 19 18 19 19 17 15 15 13 11 7 1 2 3 1 4 11 9 14 21 8 18 8 6 13 24 18 15 8 9 7 7 4 2 6 11 23 36 23 1 8 1 4 4 11 9 14 17 17
29 24 23 21 18 17 17 16 18 17 14 12 10 6 1 6 8 8 4 6 9 6 4 3 9 15 16 7 4 6 14 22 17 12 9 8 7 4 5 20 25 26 35 27 13 8 11 16 17 15 14 17 20 21
30 27 24 19 16 15 15 15 16 15 8 6 3 5 4 5 4 4 6 5 5 6 4 3 3 6 15 7 4 2 4 4 7 10 15 15 4 7 7 24 29 18 19 27 19 13 10 12 17 21 18 19 20 20
32 28 25 20 15 14 14 13 14 11 3 1 7 3 4 2 1 1 0 2 5 6 4 7 6 6 7 9 4 5 1 3 2 7 13 7 7 7 23 28 27 23 21 15 10 17 17 17 15 20 20 20 19 19
31 25 26 21 16 13 11 11 11 6 7 7 5 4 4 2 2 2 1 2 4 5 11 10 13 6 4 1 4 2 2 2 2 4 7 1 1 4 28 36 28 23 19 19 26 32 32 28 25 23 22 23 22 21
29 26 28 23 17 12 9 7 6 2 5 5 3 2 3 3 2 1 3 2 5 5 5 7 7 10 5 4 1 2 3 3 7 5 4 7 5 21 37 44 31 26 20 22 27 41 40 34 27 31 32 30 33 27
29 27 24 22 17 12 8 4 3 1 7 5 3 3 1 3 8 5 4 3 4 6 8 9 7 4 3 3 2 2 3 9 10 3 6 3 8 44 52 48 41 35 26 24 26 30 41 36 28 35 38 35 33 30
29 28 24 21 16 11 8 3 1 4 5 3 3 5 5 4 7 6 5 4 7 10 17 17 7 3 4 2 2 3 6 3 3 1 2 4 27 55 55 47 45 42 26 22 25 27 33 36 28 31 30 19 34 37
30 25 24 20 16 12 8 4 4 6 3 3 3 3 8 10 15 15 15 7 5 12 17 9 5 3 4 3 1 4 4 3 6 3 4 29 57 55 49 43 42 36 24 24 18 25 34 30 22 19 22 25 25 23
29 24 22 19 17 13 9 6 5 4 1 2 6 4 6 5 9 7 1 4 14 16 8 3 3 4 2 3 3 6 4 3 1 7 38 48 49 46 39 39 30 28 21 9 15 28 32 26 18 15 16 18 28 25
30 17 21 19 17 13 10 9 4 1 2 4 5 10 15 16 12 4 9 14 18 10 4 4 2 3 4 3 4 2 3 4 27 45 46 45 40 37 27 28 19 10 9 19 29 34 34 32 32 30 28 27 27 24
24 24 22 21 17 16 11 3 1 2 4 4 5 12 13 10 8 11 11 18 15 11 4 2 3 1 4 5 3 3 17 38 39 43 51 37 30 14 8 4 9 14 24 35 47 43 39 33 30 30 31 32 14 24
27 25 24 21 16 5 3 1 1 2 4 10 8 8 7 5 15 14 16 16 18 11 6 4 4 4 3 3 11 32 33 37 46 49 29 21 5 4 4 8 16 20 23 28 38 39 31 14 12 17 23 27 28 27
24 23 21 15 5 2 3 3 1 3 4 4 9 10 5 5 13 14 15 18 16 5 5 5 3 1 8 28 33 41 44 43 38 24 10 9 14 20 26 30 37 39 42 44 46 45 45 43 37 32 28 28 33 34
25 23 16 9 6 7 3 4 3 4 4 1 8 12 8 10 5 15 15 19 4 2 5 7 14 25 32 31 33 32 26 10 13 11 20 28 27 34 39 43 48 49 50 48 46 44 46 43 39 38 43 44 51 53
24 15 8 7 6 6 3 7 4 4 3 4 7 10 4 5 7 8 20 5 7 6 9 20 30 22 22 11 7 10 19 26 30 32 37 40 48 45 43 43 47 55 55 52 54 56 51 48 48 45 48 46 40 40
13 8 5 6 5 5 3 7 3 6 6 10 9 3 4 8 13 14 4 8 9 20 24 14 7 18 31 27 24 29 33 36 40 40 45 50 50 52 59 59 59 60 60 57 56 54 51 44 40 45 41 32 38 36
5 4 4 5 6 5 5 5 6 5 6 5 4 3 5 9 16 8 3 11 28 26 29 32 38 36 36 36 38 39 41 46 57 61 58 61 64 58 57 57 54 50 48 46 40 38 38 36 34 33 30 33 38 37
3 4 4 4 5 5 6 5 5 3 2 2 4 6 6 9 5 5 7 22 44 47 45 42 46 45 44 42 41 40 42 48 56 57 58 60 59 55 53 49 49 46 43 46 45 44 44 41 40 40 37 34 31 27
5 5 4 3 3 3 1 2 2 3 4 5 6 6 9 5 8 7 13 29 29 39 41 46 50 54 50 46 39 37 38 41 50 53 46 44 48 53 49 47 45 41 35 33 34 39 35 28 28 29 30 27 24 24
2 2 3 2 2 1 1 4 3 3 6 5 2 6 5 9 8 10 24 35 35 39 44 39 45 52 46 43 42 42 39 41 39 36 33 32 30 29 30 36 40 38 34 32 31 30 32 32 31 30 28 24 22 21
2 3 3 1 1 1 1 1 3 4 4 5 4 4 5 7 3 8 18 28 32 38 40 40 38 38 38 40 40 40 42 42 42 41 42 41 39 37 34 31 31 27 25 24 22 21 20 19 18 17 12 9 8 7
2 3 1 3 4 3 2 3 4 4 8 4 7 3 6 10 17 19 27 36 39 38 40 39 37 35 36 36 37 36 31 25 26 31 38 36 32 30 25 22 20 20 17 14 14 12 10 7 5 3 1 1 5 11
12 19 7 10 4 7 7 8 18 24 26 28 29 27 24 23 26 28 28 28 23 19 18 17 19 22 28 32 35 32 30 28 29 29 26 23 21 19 19 19 17 14 8 3 2 3 5 8 9 10 11 12 10 7
10 10 13 19 14 38 41 41 39 38 38 37 39 40 33 30 30 27 27 26 25 24 21 19 16 17 19 18 18 19 19 20 20 18 14 12 12 12 9 7 8 7 4 3 7 6 3 6 6 4 4 5 8 11
15 15 16 13 28 37 39 46 43 38 42 43 37 36 36 36 17 14 23 25 26 27 27 26 25 24 24 23 22 18 14 10 10 13 15 13 12 8 6 6 7 5 6 4 3 5 6 8 8 9 11 14 17 19
27 28 25 18 16 16 20 13 13 11 19 20 23 30 27 15 7 12 15 17 17 18 20 22 22 23 19 16 16 22 25 22 16 12 10 9 10 10 10 10 10 8 7 7 8 7 7 9 11 12 13 12 12 15
Wind_Direction_500mb
283 281 294 306 320 325 323 325 329 335 337 350 357 356 3 5 0 310 274 286 296 277 278 259 250 238 237 233 175 324 344 353 343 68 137 270 212 285 30 17 158 164 146 177 94 112 266 359 325 172 262 359 125 118
281 287 299 306 314 319 318 320 327 340 339 346 346 353 353 358 359 352 282 270 278 273 271 278 271 260 248 234 261 317 271 256 333 65 89 258 331 356 153 214 15 174 170 184 175 215 284 322 311 312 271 257 173 149
265 279 288 299 312 311 311 313 320 330 324 331 342 349 352 346 342 343 341 303 300 286 296 288 66 67 227 227 231 232 247 280 8 360 187 184 56 153 78 264 31 349 164 114 77 266 313 314 295 304 267 239 213 198
261 273 283 296 309 306 309 303 307 318 321 327 336 342 341 341 335 340 7 45 6 313 297 266 306 314 158 203 212 220 223 1 342 341 44 46 185 64 249 255 248 216 143 145 291 285 292 253 259 275 215 195 185 182
256 264 279 297 306 297 305 297 298 311 320 327 328 330 334 337 335 43 69 41 19 4 293 295 6 109 27 316 224 223 218 225 287 347 20 284 285 325 331 344 260 196 181 165 214 218 188 248 225 210 207 198 191 188
251 252 274 287 298 291 295 292 296 307 316 319 320 322 328 333 351 157 200 84 7 0 329 317 335 19 18 352 215 205 203 217 225 250 260 277 277 310 79 253 296 318 334 276 311 192 225 247 211 229 236 219 222 231
242 257 271 287 288 289 286 290 296 306 314 314 313 314 321 333 141 145 72 35 9 355 344 309 320 340 11 49 117 183 192 199 208 214 222 208 235 187 306 224 247 337 325 316 119 99 162 238 353 250 247 216 196 181
241 257 274 279 282 283 283 291 299 311 315 312 307 298 95 73 92 89 57 302 295 329 311 320 282 327 9 17 111 154 183 200 215 221 174 183 148 198 256 267 285 307 313 274 243 257 300 303 292 267 229 207 184 165
231 245 264 264 275 279 284 295 305 312 310 312 304 148 123 102 91 1 331 306 220 260 314 297 276 275 353 9 326 229 189 155 209 204 198 157 163 223 253 331 321 300 295 299 228 226 262 294 282 238 218 197 196 186
232 243 246 248 266 275 281 296 311 311 218 187 156 144 143 123 3 352 214 283 219 200 247 244 249 269 338 335 338 1 29 249 278 248 141 136 219 250 355 351 337 325 300 273 233 224 233 257 244 230 228 226 229 220
230 235 228 234 254 265 276 298 322 318 176 164 171 164 164 219 234 224 245 198 183 243 217 238 233 265 303 52 265 347 282 255 268 275 134 224 166 305 351 345 342 335 300 278 260 258 265 277 273 235 222 229 228 224
218 222 218 224 240 248 259 295 340 48 172 183 186 223 168 181 194 303 246 245 217 253 224 215 271 240 276 262 191 264 270 38 244 139 153 182 183 353 342 341 330 330 314 282 268 254 251 248 255 249 236 246 233 219
211 211 210 212 225 228 236 274 338 24 156 148 161 144 66 160 42 206 206 182 315 5 306 329 314 302 242 265 272 64 262 238 329 136 140 114 320 345 340 339 326 325 315 291 276 250 236 230 248 248 248 259 226 211
199 198 200 204 209 210 216 223 202 155 147 152 150 342 158 268 246 205 198 216 246 245 304 316 301 330 315 355 206 258 250 313 314 9 60 295 330 329 328 329 324 315 306 289 278 250 226 214 230 246 253 223 202 198
184 187 187 194 194 196 197 194 177 172 165 153 153 227 221 253 268 281 281 274 331 315 325 315 308 321 303 330 273 329 272 11 21 279 256 315 318 319 323 330 321 313 295 288 257 206 192 191 213 231 207 195 193 185
172 170 178 182 182 181 177 173 177 164 190 207 228 275 249 294 305 8 45 44 0 345 323 348 17 325 248 332 281 235 224 138 213 282 306 314 315 319 327 340 329 310 299 256 173 168 181 176 191 179 175 171 163 161
150 158 166 165 164 163 158 140 141 193 261 241 268 288 296 288 279 5 33 11 356 354 25 46 345 275 309 272 265 351 82 292 307 310 325 325 320 318 328 326 315 329 113 144 148 149 141 133 131 143 139 135 139 136
143 144 146 146 145 140 142 146 154 275 276 292 327 350 62 56 69 52 20 10 3 354 325 275 300 325 238 273 316 6 314 324 321 313 322 328 323 319 330 337 34 107 118 135 127 124 119 119 127 127 131 142 159 164
136 135 134 134 135 129 134 108 109 332 353 355 13 31 26 48 30 7 350 331 317 296 268 225 229 230 246 264 303 316 311 307 312 325 335 339 55 154 142 94 105 113 134 133 131 131 126 133 167 148 137 129 126 130
135 132 129 121 89 70 92 108 21 314 12 358 10 354 348 9 335 327 325 323 321 232 229 223 239 221 299 299 305 307 311 314 312 315 26 78 112 128 121 121 116 113 114 118 115 114 115 114 111 111 111 116 120 128
128 123 109 84 57 45 63 39 84 30 351 328 360 5 317 321 352 348 323 340 336 278 271 251 272 291 297 297 306 307 316 330 115 134 108 104 121 124 119 117 115 112 110 110 110 110 107 106 109 107 109 116 122 116
120 118 92 48 37 23 52 25 352 345 335 356 356 330 329 349 354 346 326 320 298 273 273 291 299 299 306 328 102 103 105 103 109 114 118 117 111 111 115 117 116 109 104 103 106 105 105 110 108 111 116 112 113 116
112 87 53 29 17 21 49 10 17 14 36 332 348 20 37 5 340 345 359 329 292 324 324 318 53 102 103 117 119 115 113 112 109 111 112 111 112 114 114 113 109 108 107 106 109 109 110 113 116 121 123 109 122 127
39 46 32 32 16 339 351 38 21 8 355 5 13 37 12 343 351 33 344 296 343 50 95 108 114 111 102 100 102 102 104 105 110 110 110 112 109 108 108 107 106 105 106 109 105 102 99 100 105 119 118 114 115 114
12 21 22 358 34 33 43 356 359 17 19 323 60 22 356 351 19 28 342 334 24 68 99 108 109 104 102 98 102 106 104 104 109 100 98 103 106 107 105 103 101 100 106 107 105 104 104 102 105 107 106 107 106 108
77 21 24 25 31 76 350 357 14 346 318 75 44 357 350 37 41 20 325 357 46 64 100 98 100 97 94 97 102 104 106 114 115 97 99 105 101 110 107 106 105 102 100 99 107 110 103 101 106 106 98 92 94 106
33 315 306 292 209 184 208 247 278 305 59 62 9 351 43 51 6 327 23 48 64 79 117 111 105 100 95 94 93 98 109 120 116 103 99 102 102 98 103 107 104 102 101 102 106 105 103 102 104 104 106 110 110 114
246 259 190 349 294 217 290 187 153 60 106 145 141 37 91 118 218 15 63 94 108 108 107 105 101 97 98 98 98 102 103 105 106 104 100 95 94 97 99 99 100 101 100 103 104 102 107 111 117 124 120 126 148 165
328 330 310 315 144 196 259 21 75 70 143 119 111 61 72 82 99 103 126 128 121 118 112 107 103 100 99 101 106 106 101 108 125 115 108 102 100 98 101 108 111 106 101 102 106 96 95 111 129 147 50 20 14 343
54 75 45 29 38 35 53 122 120 117 102 96 102 110 105 104 108 106 128 144 138 134 129 123 120 120 115 112 113 111 106 104 103 110 110 105 101 99 93 88 84 87 91 86 22 330 311 287 276 272 273 276 293 273
75 75 62 55 38 69 103 108 106 105 106 114 121 115 111 110 116 120 123 128 127 128 129 127 128 140 143 135 139 131 127 117 110 109 100 93 96 101 93 71 42 25 18 358 324 293 305 331 294 253 262 284 291 299
66 45 68 51 61 77 85 77 80 85 94 98 104 118 118 118 99 133 139 131 124 115 102 99 100 119 125 123 122 109 102 110 115 106 96 86 89 84 40 7 358 356 353 354 307 301 319 315 306 296 297 303 310 314
95 87 82 80 90 94 107 97 80 65 83 90 93 106 110 95 79 161 169 173 140 124 126 110 96 96 110 126 115 100 82 92 103 104 95 81 62 50 36 32 25 10 357 342 332 315 299 300 305 309 321 335 342 342
Wind_Speed_850mb
21 25 25 23 25 28 28 23 20 21 21 21 22 22 19 15 12 6 10 10 8 9 26 28 22 20 12 5 4 10 8 6 8 5 2 3 3 3 4 2 6 11 12 7 5 4 11 14 3 5 4 7 14 32
24 16 17 22 28 31 24 21 19 19 19 22 21 20 17 16 16 11 5 15 20 19 22 32 42 43 33 28 5 7 4 5 3 4 0 1 3 5 3 5 3 2 7 8 12 9 5 10 5 11 9 4 10 29
24 24 24 24 30 25 23 19 16 19 19 19 19 18 16 17 18 17 12 9 14 15 26 14 4 8 17 37 37 12 4 3 1 6 4 2 2 1 1 4 1 3 5 6 4 6 7 13 14 14 7 11 18 24
25 22 20 23 26 23 22 18 17 18 20 19 19 17 17 16 16 13 12 8 10 8 6 7 3 1 4 14 28 43 18 3 5 8 3 2 2 1 2 5 3 6 6 8 4 9 11 14 11 7 7 10 18 27
27 25 22 23 25 25 23 20 19 17 19 18 19 18 18 15 11 1 7 8 13 11 8 23 7 9 10 5 15 23 45 35 8 9 4 2 6 2 4 3 6 7 9 8 10 16 7 5 10 17 12 16 23 26
26 25 26 26 26 25 23 20 20 19 17 17 17 17 16 12 4 4 3 2 7 15 9 8 12 8 17 4 10 17 32 35 13 4 4 4 5 4 3 3 10 10 9 9 2 8 12 7 6 7 14 24 30 28
26 25 23 26 23 21 19 18 19 19 17 15 15 13 11 7 1 2 3 1 4 11 9 14 21 8 18 8 6 13 24 18 15 8 9 7 7 4 2 6 11 23 36 23 1 8 1 4 4 11 9 14 17 17
29 24 23 21 18 17 17 16 18 17 14 12 10 6 1 6 8 8 4 6 9 6 4 3 9 15 16 7 4 6 14 22 17 12 9 8 7 4 5 20 25 26 35 27 13 8 11 16 17 15 14 17 20 21
30 27 24 19 16 15 15 15 16 15 8 6 3 5 4 5 4 4 6 5 5 6 4 3 3 6 15 7 4 2 4 4 7 10 15 15 4 7 7 24 29 18 19 27 19 13 10 12 17 21 18 19 20 20
32 28 25 20 15 14 14 13 14 11 3 1 7 3 4 2 1 1 0 2 5 6 4 7 6 6 7 9 4 5 1 3 2 7 13 7 7 7 23 28 27 23 21 15 10 17 17 17 15 20 20 20 19 19
31 25 26 21 16 13 11 11 11 6 7 7 5 4 4 2 2 2 1 2 4 5 11 10 13 6 4 1 4 2 2 2 2 4 7 1 1 4 28 36 28 23 19 19 26 32 32 28 25 23 22 23 22 21
29 26 28 23 17 12 9 7 6 2 5 5 3 2 3 3 2 1 3 2 5 5 5 7 7 10 5 4 1 2 3 3 7 5 4 7 5 21 37 44 31 26 20 22 27 41 40 34 27 31 32 30 33 27
29 27 24 22 17 12 8 4 3 1 7 5 3 3 1 3 8 5 4 3 4 6 8 9 7 4 3 3 2 2 3 9 10 3 6 3 8 44 52 48 41 35 26 24 26 30 41 36 28 35 38 35 33 30
29 28 24 21 16 11 8 3 1 4 5 3 3 5 5 4 7 6 5 4 7 10 17 17 7 3 4 2 2 3 6 3 3 1 2 4 27 55 55 47 45 42 26 22 25 27 33 36 28 31 30 19 34 37
30 25 24 20 16 12 8 4 4 6 3 3 3 3 8 10 15 15 15 7 5 12 17 9 5 3 4 3 1 4 4 3 6 3 4 29 57 55 49 43 42 36 24 24 18 25 34 30 22 19 22 25 25 23
29 24 22 19 17 13 9 6 5 4 1 2 6 4 6 5 9 7 1 4 14 16 8 3 3 4 2 3 3 6 4 3 1 7 38 48 49 46 39 39 30 28 21 9 15 28 32 26 18 15 16 18 28 25
30 17 21 19 17 13 10 9 4 1 2 4 5 10 15 16 12 4 9 14 18 10 4 4 2 3 4 3 4 2 3 4 27 45 46 45 40 37 27 28 19 10 9 19 29 34 34 32 32 30 28 27 27 24
24 24 22 21 17 16 11 3 1 2 4 4 5 12 13 10 8 11 11 18 15 11 4 2 3 1 4 5 3 3 17 38 39 43 51 37 30 14 8 4 9 14 24 35 47 43 39 33 30 30 31 32 14 24
27 25 24 21 16 5 3 1 1 2 4 10 8 8 7 5 15 14 16 16 18 11 6 4 4 4 3 3 11 32 33 37 46 49 29 21 5 4 4 8 16 20 23 28 38 39 31 14 12 17 23 27 28 27
24 23 21 15 5 2 3 3 1 3 4 4 9 10 5 5 13 14 15 18 16 5 5 5 3 1 8 28 33 41 44 43 38 24 10 9 14 20 26 30 37 39 42 44 46 45 45 43 37 32 28 28 33 34
25 23 16 9 6 7 3 4 3 4 4 1 8 12 8 10 5 15 15 19 4 2 5 7 14 25 32 31 33 32 26 10 13 11 20 28 27 34 39 43 48 49 50 48 46 44 46 43 39 38 43 44 51 53
24 15 8 7 6 6 3 7 4 4 3 4 7 10 4 5 7 8 20 5 7 6 9 20 30 22 22 11 7 10 19 26 30 32 37 40 48 45 43 43 47 55 55 52 54 56 51 48 48 45 48 46 40 40
13 8 5 6 5 5 3 7 3 6 6 10 9 3 4 8 13 14 4 8 9 20 24 14 7 18 31 27 24 29 33 36 40 40 45 50 50 52 59 59 59 60 60 57 56 54 51 44 40 45 41 32 38 36
5 4 4 5 6 5 5 5 6 5 6 5 4 3 5 9 16 8 3 11 28 26 29 32 38 36 36 36 38 39 41 46 57 61 58 61 64 58 57 57 54 50 48 46 40 38 38 36 34 33 30 33 38 37
3 4 4 4 5 5 6 5 5 3 2 2 4 6 6 9 5 5 7 22 44 47 45 42 46 45 44 42 41 40 42 48 56 57 58 60 59 55 53 49 49 46 43 46 45 44 44 41 40 40 37 34 31 27
5 5 4 3 3 3 1 2 2 3 4 5 6 6 9 5 8 7 13 29 29 39 41 46 50 54 50 46 39 37 38 41 50 53 46 44 48 53 49 47 45 41 35 33 34 39 35 28 28 29 30 27 24 24
2 2 3 2 2 1 1 4 3 3 6 5 2 6 5 9 8 10 24 35 35 39 44 39 45 52 46 43 42 42 39 41 39 36 33 32 30 29 30 36 40 38 34 32 31 30 32 32 31 30 28 24 22 21
2 3 3 1 1 1 1 1 3 4 4 5 4 4 5 7 3 8 18 28 32 38 40 40 38 38 38 40 40 40 42 42 42 41 42 41 39 37 34 31 31 27 25 24 22 21 20 19 18 17 12 9 8 7
2 3 1 3 4 3 2 3 4 4 8 4 7 3 6 10 17 19 27 36 39 38 40 39 37 35 36 36 37 36 31 25 26 31 38 36 32 30 25 22 20 20 17 14 14 12 10 7 5 3 1 1 5 11
12 19 7 10 4 7 7 8 18 24 26 28 29 27 24 23 26 28 28 28 23 19 18 17 19 22 28 32 35 32 30 28 29 29 26 23 21 19 19 19 17 14 8 3 2 3 5 8 9 10 11 12 10 7
10 10 13 19 14 38 41 41 39 38 38 37 39 40 33 30 30 27 27 26 25 24 21 19 16 17 19 18 18 19 19 20 20 18 14 12 12 12 9 7 8 7 4 3 7 6 3 6 6 4 4 5 8 11
15 15 16 13 28 37 39 46 43 38 42 43 37 36 36 36 17 14 23 25 26 27 27 26 25 24 24 23 22 18 14 10 10 13 15 13 12 8 6 6 7 5 6 4 3 5 6 8 8 9 11 14 17 19
27 28 25 18 16 16 20 13 13 11 19 20 23 30 27 15 7 12 15 17 17 18 20 22 22 23 19 16 16 22 25 22 16 12 10 9 10 10 10 10 10 8 7 7 8 7 7 9 11 12 13 12 12 15
Wind_Direction_850mb
283 281 294 306 320 325 323 325 329 335 337 350 357 356 3 5 0 310 274 286 296 277 278 259 250 238 237 233 175 324 344 353 343 68 137 270 212 285 30 17 158 164 146 177 94 112 266 359 325 172 262 359 125 118
281 287 299 306 314 319 318 320 327 340 339 346 346 353 353 358 359 352 282 270 278 273 271 278 271 260 248 234 261 317 271 256 333 65 89 258 331 356 153 214 15 174 170 184 175 215 284 322 311 312 271 257 173 149
265 279 288 299 312 311 311 313 320 330 324 331 342 349 352 346 342 343 341 303 300 286 296 288 66 67 227 227 231 232 247 280 8 360 187 184 56 153 78 264 31 349 164 114 77 266 313 314 295 304 267 239 213 198
261 273 283 296 309 306 309 303 307 318 321 327 336 342 341 341 335 340 7 45 6 313 297 266 306 314 158 203 212 220 223 1 342 341 44 46 185 64 249 255 248 216 143 145 291 285 292 253 259 275 215 195 185 182
256 264 279 297 306 297 305 297 298 311 320 327 328 330 334 337 335 43 69 41 19 4 293 295 6 109 27 316 224 223 218 225 287 347 20 284 285 325 331 344 260 196 181 165 214 218 188 248 225 210 207 198 191 188
251 252 274 287 298 291 295 292 296 307 316 319 320 322 328 333 351 157 200 84 7 0 329 317 335 19 18 352 215 205 203 217 225 250 260 277 277 310 79 253 296 318 334 276 311 192 225 247 211 229 236 219 222 231
242 257 271 287 288 289 286 290 296 306 314 314 313 314 321 333 141 145 72 35 9 355 344 309 320 340 11 49 117 183 192 199 208 214 222 208 235 187 306 224 247 337 325 316 119 99 162 238 353 250 247 216 196 181
241 257 274 279 282 283 283 291 299 311 315 312 307 298 95 73 92 89 57 302 295 329 311 320 282 327 9 17 111 154 183 200 215 221 174 183 148 198 256 267 285 307 313 274 243 257 300 303 292 267 229 207 184 165
231 245 264 264 275 279 284 295 305 312 310 312 304 148 123 102 91 1 331 306 220 260 314 297 276 275 353 9 326 229 189 155 209 204 198 157 163 223 253 331 321 300 295 299 228 226 262 294 282 238 218 197 196 186
232 243 246 248 266 275 281 296 311 311 218 187 156 144 143 123 3 352 214 283 219 200 247 244 249 269 338 335 338 1 29 249 278 248 141 136 219 250 355 351 337 325 300 273 233 224 233 257 244 230 228 226 229 220
230 235 228 234 254 265 276 298 322 318 176 164 171 164 164 219 234 224 245 198 183 243 217 238 233 265 303 52 265 347 282 255 268 275 134 224 166 305 351 345 342 335 300 278 260 258 265 277 273 235 222 229 228 224
218 222 218 224 240 248 259 295 340 48 172 183 186 223 168 181 194 303 246 245 217 253 224 215 271 240 276 262 191 264 270 38 244 139 153 182 183 353 342 341 330 330 314 282 268 254 251 248 255 249 236 246 233 219
211 211 210 212 225 228 236 274 338 24 156 148 161 144 66 160 42 206 206 182 315 5 306 329 314 302 242 265 272 64 262 238 329 136 140 114 320 345 340 339 326 325 315 291 276 250 236 230 248 248 248 259 226 211
199 198 200 204 209 210 216 223 202 155 147 152 150 342 158 268 246 205 198 216 246 245 304 316 301 330 315 355 206 258 250 313 314 9 60 295 330 329 328 329 324 315 306 289 278 250 226 214 230 246 253 223 202 198
184 187 187 194 194 196 197 194 177 172 165 153 153 227 221 253 268 281 281 274 331 315 325 315 308 321 303 330 273 329 272 11 21 279 256 315 318 319 323 330 321 313 295 288 257 206 192 191 213 231 207 195 193 185
172 170 178 182 182 181 177 173 177 164 190 207 228 275 249 294 305 8 45 44 0 345 323 348 17 325 248 332 281 235 224 138 213 282 306 314 315 319 327 340 329 310 299 256 173 168 181 176 191 179 175 171 163 161
150 158 166 165 164 163 158 140 141 193 261 241 268 288 296 288 279 5 33 11 356 354 25 46 345 275 309 272 265 351 82 292 307 310 325 325 320 318 328 326 315 329 113 144 148 149 141 133 131 143 139 135 139 136
143 144 146 146 145 140 142 146 154 275 276 292 327 350 62 56 69 52 20 10 3 354 325 275 300 325 238 273 316 6 314 324 321 313 322 328 323 319 330 337 34 107 118 135 127 124 119 119 127 127 131 142 159 164
136 135 134 134 135 129 134 108 109 332 353 355 13 31 26 48 30 7 350 331 317 296 268 225 229 230 246 264 303 316 311 307 312 325 335 339 55 154 142 94 105 113 134 133 131 131 126 133 167 148 137 129 126 130
135 132 129 121 89 70 92 108 21 314 12 358 10 354 348 9 335 327 325 323 321 232 229 223 239 221 299 299 305 307 311 314 312 315 26 78 112 128 121 121 116 113 114 118 115 114 115 114 111 111 111 116 120 128
128 123 109 84 57 45 63 39 84 30 351 328 360 5 317 321 352 348 323 340 336 278 271 251 272 291 297 297 306 307 316 330 115 134 108 104 121 124 119 117 115 112 110 110 110 110 107 106 109 107 109 116 122 116
120 118 92 48 37 23 52 25 352 345 335 356 356 330 329 349 354 346 326 320 298 273 273 291 299 299 306 328 102 103 105 103 109 114 118 117 111 111 115 117 116 109 104 103 106 105 105 110 108 111 116 112 113 116
112 87 53 29 17 21 49 10 17 14 36 332 348 20 37 5 340 345 359 329 292 324 324 318 53 102 103 117 119 115 113 112 109 111 112 111 112 114 114 113 109 108 107 106 109 109 110 113 116 121 123 109 122 127
39 46 32 32 16 339 351 38 21 8 355 5 13 37 12 343 351 33 344 296 343 50 95 108 114 111 102 100 102 102 104 105 110 110 110 112 109 108 108 107 106 105 106 109 105 102 99 100 105 119 118 114 115 114
12 21 22 358 34 33 43 356 359 17 19 323 60 22 356 351 19 28 342 334 24 68 99 108 109 104 102 98 102 106 104 104 109 100 98 103 106 107 105 103 101 100 106 107 105 104 104 102 105 107 106 107 106 108
77 21 24 25 31 76 350 357 14 346 318 75 44 357 350 37 41 20 325 357 46 64 100 98 100 97 94 97 102 104 106 114 115 97 99 105 101 110 107 106 105 102 100 99 107 110 103 101 106 106 98 92 94 106
33 315 306 292 209 184 208 247 278 305 59 62 9 351 43 51 6 327 23 48 64 79 117 111 105 100 95 94 93 98 109 120 116 103 99 102 102 98 103 107 104 102 101 102 106 105 103 102 104 104 106 110 110 114
246 259 190 349 294 217 290 187 153 60 106 145 141 37 91 118 218 15 63 94 108 108 107 105 101 97 98 98 98 102 103 105 106 104 100 95 94 97 99 99 100 101 100 103 104 102 107 111 117 124 120 126 148 165
328 330 310 315 144 196 259 21 75 70 143 119 111 61 72 82 99 103 126 128 121 118 112 107 103 100 99 101 106 106 101 108 125 115 108 102 100 98 101 108 111 106 101 102 106 96 95 111 129 147 50 20 14 343
54 75 45 29 38 35 53 122 120 117 102 96 102 110 105 104 108 106 128 144 138 134 129 123 120 120 115 112 113 111 106 104 103 110 110 105 101 99 93 88 84 87 91 86 22 330 311 287 276 272 273 276 293 273
75 75 62 55 38 69 103 108 106 105 106 114 121 115 111 110 116 120 123 128 127 128 129 127 128 140 143 135 139 131 127 117 110 109 100 93 96 101 93 71 42 25 18 358 324 293 305 331 294 253 262 284 291 299
66 45 68 51 61 77 85 77 80 85 94 98 104 118 118 118 99 133 139 131 124 115 102 99 100 119 125 123 122 109 102 110 115 106 96 86 89 84 40 7 358 356 353 354 307 301 319 315 306 296 297 303 310 314
95 87 82 80 90 94 107 97 80 65 83 90 93 106 110 95 79 161 169 173 140 124 126 110 96 96 110 126 115 100 82 92 103 104 95 81 62 50 36 32 25 10 357 342 332 315 299 300 305 309 321 335 342 342